Regional Weather Roundup
Issued by NWS

Home | Current Version | Previous Version | Text Only | Print | Product List | Glossary On
Versions: 1 2 3 4 5 6 7 8 9 10 11 12 13 14 15 16 17 18 19 20 21 22 23 24 25 26 27 28 29 30 31 32 33 34 35 36 37 38 39 40 41 42 43 44 45 46 47 48 49 50
000
ASHW40 PHFO 231643
RWRHI

WEATHER ROUNDUP FOR HAWAII
NATIONAL WEATHER SERVICE HONOLULU HI
600 AM HST WED AUG 23 2017

THIS IS AN AUTOMATED REPORT THAT HAS NOT BEEN QUALITY CONTROLLED.

NOTE..."FAIR" INDICATES FEW OR NO CLOUDS BELOW 12,000 FEET WITH NO
SIGNIFICANT WEATHER AND/OR OBSTRUCTIONS TO VISIBILITY.

* - THESE SITES REPORT LIMITED FIELDS
# - BUOY DATA PROVIDED BY PACIFIC ISLANDS OCEAN OBSERVING SYSTEM.

HIZ001>004-231700-
KAUAI-NIIHAU-

CITY           SKY/WX    TMP DP  RH WIND       PRES   REMARKS
LIHUE APT      CLOUDY    80  72  76 NE12      30.04R
PORT ALLEN*      N/A     79 N/A N/A E16G22      N/A
POIPU*           N/A     79 N/A N/A NE9G17      N/A
PRINCEVILLE*     N/A     75 N/A N/A SE5         N/A
KOKOLE POINT*  NOT AVBL
MOLOAA DAIRY*    N/A     77  72  83 E6G12       N/A
WAIMEA HTS*      N/A     75  63  64 NE3G9       N/A
PUU OPAE*        N/A     66  59  77 E2          N/A
PUU LUA*       NOT AVBL
MAKAHA RIDGE*    N/A     70  66  88 CALM        N/A
$$

HIZ005>011-231700-
OAHU-

CITY           SKY/WX    TMP DP  RH WIND       PRES   REMARKS
HONOLULU       PTCLDY    74  68  81 E13       30.01R
KALAELOA       CLEAR     77  68  73 NE6       30.02R
KANEOHE MCB    MOCLDY    80  72  76 E9        30.00
WHEELER FIELD  MOCLDY    73  68  82 E5        30.02R
BELLOWS*         N/A    N/A N/A N/A NE15        N/A
KAHUKU*          N/A    N/A N/A N/A NE8G17      N/A
WHEELER*         N/A    N/A N/A N/A SW2         N/A
WAIANAE HARBOR   N/A    N/A N/A N/A E6G13       N/A
DILLINGHAM*      N/A     90  86  89 NW1         N/A  HX 119
KAHUKU TRN*      N/A     86  81  84 W12G18      N/A  HX 102
KAWAILOA*        N/A     73  68  83 E12G18      N/A
KII*             N/A     79  73  83 E18G25      N/A
MAKUA RANGE*     N/A     79  66  65 W6G16       N/A
OAHU FOREST NW   N/A     72  66  83 E16G31      N/A
SCHOFIELD BRK*   N/A     73  72  94 MISG        N/A
SCHOFIELD S*   NOT AVBL
WAIANAE VLY*     N/A     75  66  73 S6G15       N/A
KUAOKALA*        N/A     73  68  83 NE13G21     N/A
HONOULIUULI*   NOT AVBL
MOKUOLOE IS*   NOT AVBL
PALEHUA*         N/A     68  64  88 NE16G26     N/A
WAIAWA PHB*    NOT AVBL
$$

HIZ012>013-231700-
MOLOKAI-

CITY           SKY/WX    TMP DP  RH WIND       PRES   REMARKS
MOLOKAI AIRPT  CLEAR     77  72  84 NE9       30.02R
KALAUPAPA      NOT AVBL
MAKAPULAPAI*     N/A     79  72  78 E18G25      N/A
MOLOKAI 1*       N/A     66  59  77 SE1         N/A
PUU ALII*        N/A     61  60  97 N3G15       N/A
$$

HIZ016-231700-
KAHOOLAWE-

CITY           SKY/WX    TMP DP  RH WIND       PRES   REMARKS
KAHOOLAWE*     NOT AVBL
HAKIOAWA*        N/A     73  67  81 MISG      30.42R
HONOKANAIA*      N/A     78  68  72 NE12G23   29.92S
KANELOA*         N/A     75  70  83 NE15G28   30.05S
KEALIALALO*    NOT AVBL
LUA MAKIKA*    NOT AVBL
$$

HIZ014>015-231700-
LANAI-

CITY           SKY/WX    TMP DP  RH WIND       PRES   REMARKS
LANAI CITY     FAIR      68  65  90 S5        30.06R
LANAI 1*         N/A     82  79  89 E5G12       N/A  HX  93
$$

HIZ017>028-231700-
MAUI-

CITY           SKY/WX    TMP DP  RH WIND       PRES   REMARKS
KAHULUI        PTCLDY    79  69  71 NE15      29.99R
KAPALUA-W MAUI PTCLDY    77  64  65 NE7       30.01
HANA AIRPORT   CLOUDY    77  73  88 NE9       30.06R
HANA*          NOT AVBL
HALEAKALA SUMM NOT AVBL
MAALAEA BAY*     N/A     79 N/A N/A N18G28      N/A
HALEAKALA*     NOT AVBL
KAUPO GAP*     NOT AVBL
KULA 1*          N/A    N/A N/A N/A E5          N/A
$$

HIZ023>026-231700-
BIG ISLAND OF HAWAII COAST AND LOWER SLOPES-

CITY           SKY/WX    TMP DP  RH WIND       PRES   REMARKS
KAILUA KONA    PTCLDY    78  72  81 SE8       29.94S
HILO           CLOUDY    73  67  81 S3        30.00S
HONOKAA*         N/A     73 N/A N/A VRB1        N/A
KAWAIHAE MWT*    N/A     81 N/A N/A E12G21      N/A
KAWAIHAE*        N/A     79 N/A N/A SE12      29.96R
SOUTH POINT*     N/A     70 N/A N/A NW8         N/A
UPOLU AIRPORT* NOT AVBL
KAMUELA*         N/A     63  57  82 E9        30.10R
HAKALAU*         N/A     46  46 100 W3          N/A
KALOKO-HONOKO*   N/A     79  72  78 E5        29.95R
PALI 2*          N/A     66  59  77 S16G24      N/A
KEALAKOMO*       N/A     79  63  57 VRB14G25    N/A
KAUPULEHU*       N/A     72  63  73 SE6G13      N/A
KAPAPALA*        N/A     62  61  95 N5          N/A
LOWER KAHUKU*    N/A    N/A N/A N/A N2G10       N/A
PUHE CS*         N/A     79  57  47 E12G22      N/A
PUHO CS*         N/A     78  64  61 E3          N/A
PTA KEAMUKU*     N/A     61  57  88 E6G13       N/A
WAIKOLOA*        N/A     77  57  50 E15G24      N/A
$$

HIZ027>028-231700-
BIG ISLAND OF HAWAII INTERIOR AND SUMMMITS-

CITY           SKY/WX    TMP DP  RH WIND       PRES   REMARKS
BRADSHAW FIELD MOCLDY    48  38  69 SE6       30.32R
MK VISITOR CEN   N/A     55  19  24 N10         N/A
MAUNA KEA*       N/A     36  10  35 NE16        N/A  WCI  26
MAUNA LOA*       N/A     45   9  23 MISG        N/A
MAUNA LOA 1*   NOT AVBL
PTA KIPUKA*      N/A     73  73 100 NW3         N/A
PTA RANGE 17*    N/A     54  48  82 W12G17      N/A
PTA WEST*        N/A     73  64  73 SE12G18     N/A
NENE CABIN*      N/A     46  46 100 NE3         N/A
AHUMOA*          N/A     54  35  48 E3          N/A
PTA PORTABLE*  NOT AVBL
PUU MALI*        N/A    N/A N/A N/A SE12G17     N/A
$$

HIC003-231700-
NORTHWEST ISLANDS-

CITY           SKY/WX    TMP DP  RH WIND       PRES   REMARKS
MIDWAY ISLAND  PTCLDY    79  73  83 NE7       30.10R
MIDWAY NOS*      N/A     81 N/A N/A MISG      30.09R
FRENCH FRIGATE NOT AVBL
$$

PHZ110>124-180-231700-
BUOY REPORTS

STATION/POSITION TIME  TEMP    WIND        PRES    WAVE   SWELL
                       AIR SEA DIR/SP/G            HT/PER HT/DIR
                 (UTC) (F)     (DEG/KT/KT) (MB)    (FT/S) (FT/D)
BUOY 51001       1620   81 81  100/ 14/ 16 1018.0
BUOY 51101       1550   81 81  100/ 14/ 16 1017.9R   6/ 7   5/ 90
BUOY 51100       NOT AVBL
BUOY 51002       1620   80 81   70/ 16/ 19 1013.2
BUOY 51003       1550   80 82  110/ 12/ 14 1013.8R   5/10   5/140
BUOY 51004       1550      80   60/ 16/ 17 1013.6R   7/ 7   5/200
WAIMEA BAY#      1602      78                N/A     4/ 5
MOKAPU POINT#    1604      81                N/A     6/ 8   2/130
LANAI#           NOT AVBL
BARBERS PT 2#    NOT AVBL
PAUWELA#         1609      80                N/A     5/ 8
HILO#            1627      80                N/A     6/ 8   2/110
KANEOHE BAY#     NOT AVBL
KANEOHE BAY 2#   NOT AVBL
HANALEI#         1622      81                N/A     5/ 7
KAHULUI HARBOR   1618   80 81   30/ 12/ 17 1016.0
HONOLULU HARBOR  1618   80 81   60/  4/  7 1016.8
PEARL HARBOR#    1600      81                N/A     3/11   2/160
KILO NALU        NOT AVBL
HILO HARBOR      1618   74 79  180/  3/  5 1015.6
MOKUOLOE         1536   80 82   70/  9/ 12 1016.6R
NAWILIWILI       1618   79      60/ 10/ 13 1017.0
WHOTS BUOY       NOT AVBL
BUOY 51028       NOT AVBL
$$

......................KEY........................................
  SKY/WX - SKY CONDITIONS/PRESENT WEATHER
  TMP    - TEMPERATURE IN FAHRENHEIT
  DWPT   - DEWPOINT IN FAHRENHEIT
  RH     - RELATIVE HUMIDITY IN PERCENT
  WIND   - DIRECTION AND SPEED /MPH FOR ISLANDS...KTS FOR BUOYS/
  PRES   - MEAN SEA LEVEL PRESSURE IN INCHES OF HG
  VSB    - VISIBILITY IN MILES
  HX     - HEAT INDEX
  WCI    - WIND CHILL INDEX
  VRB    - VARIABLE WIND DIRECTION
  N/A    - NOT AVAILABLE



USA.gov is the U.S. government's official web portal to all federal, state and local government web resources and services.